AMQ135 LGRP-EPWR

Flight info

Callsign AMQ135
Flight time N/A
Altitude 36000
Route BANRO UG80 IMR UN618 DUGLA UY371 MARMA DCT EKI UW102 VADEN Y520 DINEN Y551 NAVOD/N0331F100 T226 SODGO/N0445F360 DCT DEGET DCT LITKU DCT BILNA/N0280F080 L617 EPOPA
Aircraft A320/M-SDE3FGHIRWY/LB1

Departure

Time 2026-05-04 15:03
Airport Rhodes International Airport "Diagoras" (LGRP)

Arrival

Time N/A
Airport Copernicus Wrocław Airport (EPWR)
Time Latitude Longitude Altitude Speed Heading
2026-05-04 14:42 36.40312 28.08984 39 ft 0 kts 160°
2026-05-04 14:44 36.40312 28.08985 39 ft 0 kts 160°
2026-05-04 14:45 36.40312 28.08984 39 ft 0 kts 160°
2026-05-04 14:47 36.40312 28.08985 39 ft 0 kts 160°
2026-05-04 14:47 36.40312 28.08984 39 ft 0 kts 160°
2026-05-04 14:51 36.40312 28.08985 39 ft 0 kts 160°
2026-05-04 14:51 36.40312 28.08984 39 ft 0 kts 160°
2026-05-04 14:54 36.40318 28.08982 38 ft 2 kts 160°
2026-05-04 14:55 36.40332 28.08976 38 ft 2 kts 160°
2026-05-04 14:55 36.40346 28.08969 37 ft 2 kts 160°
2026-05-04 14:55 36.40356 28.08965 36 ft 0 kts 160°
2026-05-04 14:55 36.40362 28.08961 36 ft 1 kts 107°
2026-05-04 14:56 36.40362 28.08954 36 ft 0 kts 63°
2026-05-04 14:56 36.40360 28.08947 36 ft 0 kts 69°
2026-05-04 14:56 36.40360 28.08946 36 ft 0 kts 69°
2026-05-04 14:58 36.40360 28.08947 36 ft 0 kts 69°
2026-05-04 14:59 36.40360 28.08948 36 ft 0 kts 69°
2026-05-04 14:59 36.40376 28.09004 36 ft 10 kts 71°
2026-05-04 14:59 36.40440 28.09223 37 ft 16 kts 69°
2026-05-04 15:00 36.40510 28.09335 34 ft 18 kts 349°
2026-05-04 15:00 36.40588 28.09427 31 ft 18 kts 70°
2026-05-04 15:00 36.40635 28.09584 29 ft 19 kts 69°
2026-05-04 15:01 36.40733 28.09922 24 ft 21 kts 70°
2026-05-04 15:01 36.40785 28.10097 24 ft 21 kts 69°
2026-05-04 15:01 36.40836 28.10264 25 ft 20 kts 69°
2026-05-04 15:01 36.40890 28.10424 25 ft 19 kts 43°
2026-05-04 15:02 36.40996 28.10368 22 ft 18 kts 304°
2026-05-04 15:02 36.41003 28.10222 22 ft 20 kts 250°
2026-05-04 15:02 36.40902 28.09874 20 ft 76 kts 250°
2026-05-04 15:02 36.40644 28.08994 26 ft 137 kts 250°
2026-05-04 15:03 36.40268 28.07718 297 ft 164 kts 253°
2026-05-04 15:03 36.39894 28.06397 949 ft 164 kts 254°
2026-05-04 15:03 36.39512 28.05070 1665 ft 165 kts 252°
2026-05-04 15:03 36.39103 28.03737 2208 ft 174 kts 252°
2026-05-04 15:04 36.38648 28.02243 2549 ft 196 kts 252°
2026-05-04 15:04 36.38154 28.00597 3024 ft 213 kts 252°
2026-05-04 15:04 36.37627 27.98834 3736 ft 219 kts 251°
2026-05-04 15:04 36.37107 27.97090 4542 ft 220 kts 251°
2026-05-04 15:05 36.36579 27.95312 5342 ft 222 kts 251°
2026-05-04 15:05 36.36048 27.93519 6138 ft 225 kts 251°
2026-05-04 15:05 36.35510 27.91701 6935 ft 227 kts 251°
2026-05-04 15:05 36.34966 27.89863 7728 ft 229 kts 251°
2026-05-04 15:06 36.34415 27.88001 8515 ft 232 kts 251°
2026-05-04 15:06 36.33868 27.86153 9278 ft 234 kts 250°
2026-05-04 15:06 36.33395 27.84203 10034 ft 237 kts 265°
2026-05-04 15:07 36.34667 27.80561 11444 ft 253 kts 321°
2026-05-04 15:07 36.36309 27.79734 12114 ft 266 kts 352°
2026-05-04 15:07 36.38129 27.80101 12767 ft 278 kts 25°
2026-05-04 15:07 36.39590 27.81717 13433 ft 287 kts 59°
2026-05-04 15:08 36.40236 27.84052 13882 ft 289 kts 81°
2026-05-04 15:08 36.40543 27.86524 13988 ft 290 kts 83°
2026-05-04 15:08 36.40713 27.88994 13988 ft 297 kts 96°
2026-05-04 15:08 36.40183 27.91586 14010 ft 319 kts 115°
2026-05-04 15:09 36.39248 27.94074 14006 ft 326 kts 119°
2026-05-04 15:09 36.38228 27.96607 14001 ft 327 kts 118°
2026-05-04 15:09 36.37241 27.99147 14083 ft 332 kts 117°
2026-05-04 15:10 36.35308 28.04419 15520 ft 335 kts 116°
2026-05-04 15:10 36.34364 28.07048 16206 ft 338 kts 116°
2026-05-04 15:10 36.33500 28.12736 17419 ft 351 kts 77°
2026-05-04 15:11 36.34460 28.15513 18052 ft 352 kts 52°
2026-05-04 15:11 36.36196 28.17576 18575 ft 354 kts 29°
2026-05-04 15:11 36.38532 28.18655 18817 ft 361 kts
2026-05-04 15:11 36.41010 28.18535 19094 ft 368 kts 349°
2026-05-04 15:12 36.43599 28.18085 19342 ft 381 kts 348°
2026-05-04 15:12 36.46252 28.17613 19728 ft 390 kts 349°
2026-05-04 15:12 36.48931 28.17153 20284 ft 393 kts 349°
2026-05-04 15:12 36.51672 28.16698 20826 ft 397 kts 349°
2026-05-04 15:13 36.54429 28.16249 21188 ft 404 kts 349°
2026-05-04 15:13 36.57193 28.15805 21652 ft 409 kts 349°
2026-05-04 15:13 36.60020 28.15355 22172 ft 411 kts 349°
2026-05-04 15:13 36.62873 28.14903 22675 ft 414 kts 349°
2026-05-04 15:14 36.65691 28.14458 23146 ft 417 kts 349°
2026-05-04 15:14 36.68605 28.13997 23620 ft 420 kts 349°
2026-05-04 15:14 36.71457 28.13546 24067 ft 423 kts 349°
2026-05-04 15:14 36.74420 28.13077 24514 ft 426 kts 350°
2026-05-04 15:15 36.77342 28.12615 24940 ft 428 kts 350°
2026-05-04 15:15 36.80283 28.12150 25351 ft 431 kts 350°
2026-05-04 15:15 36.83283 28.11675 25753 ft 433 kts 350°
2026-05-04 15:16 36.89269 28.10726 26518 ft 438 kts 350°
2026-05-04 15:16 36.92289 28.10247 26883 ft 441 kts 350°
2026-05-04 15:16 36.98358 28.09284 27723 ft 441 kts 350°
2026-05-04 15:17 37.01378 28.08806 28215 ft 440 kts 349°
2026-05-04 15:17 37.07420 28.07846 29114 ft 438 kts 349°
2026-05-04 15:17 37.10416 28.07370 29535 ft 438 kts 349°
2026-05-04 15:18 37.13456 28.06888 29950 ft 438 kts 349°
2026-05-04 15:18 37.16467 28.06410 30358 ft 437 kts 349°
2026-05-04 15:18 37.19475 28.05931 30770 ft 437 kts 349°
2026-05-04 15:19 37.25446 28.04979 31573 ft 435 kts 349°
2026-05-04 15:19 37.28444 28.04499 31953 ft 434 kts 349°
2026-05-04 15:19 37.34408 28.03543 32680 ft 433 kts 349°
2026-05-04 15:20 37.37394 28.03064 33021 ft 432 kts 349°
2026-05-04 15:20 37.40360 28.02587 33347 ft 432 kts 349°
2026-05-04 15:20 37.43314 28.02112 33669 ft 431 kts 349°
2026-05-04 15:20 37.46045 28.01673 33956 ft 431 kts 349°
2026-05-04 15:21 37.48974 28.01201 34250 ft 430 kts 349°
2026-05-04 15:21 37.51929 28.00724 34507 ft 430 kts 349°
2026-05-04 15:21 37.57870 27.99764 34940 ft 432 kts 349°
2026-05-04 15:22 37.60845 27.99283 35150 ft 433 kts 349°
2026-05-04 15:22 37.63836 27.98799 35355 ft 434 kts 349°
2026-05-04 15:22 37.69871 27.97821 35737 ft 436 kts 349°
2026-05-04 15:23 37.72876 27.97334 35920 ft 436 kts 349°
2026-05-04 15:23 37.75865 27.96849 36012 ft 438 kts 349°
2026-05-04 15:23 37.81882 27.95871 36024 ft 438 kts 349°
2026-05-04 15:24 37.93785 27.93933 36028 ft 438 kts 349°
2026-05-04 15:25 37.99828 27.92946 36028 ft 438 kts 349°
2026-05-04 15:26 38.07936 27.91619 36028 ft 438 kts 349°
2026-05-04 15:26 38.16991 27.90141 36028 ft 438 kts 349°
2026-05-04 15:27 38.26007 27.88664 36028 ft 438 kts 349°
2026-05-04 15:28 38.35084 27.87169 36028 ft 438 kts 349°
2026-05-04 15:29 38.44110 27.85677 36029 ft 438 kts 349°
2026-05-04 15:30 38.65236 27.82171 36051 ft 438 kts 349°
2026-05-04 15:31 38.74257 27.80668 36055 ft 438 kts 349°
2026-05-04 15:32 38.89354 27.78143 36056 ft 439 kts 349°
2026-05-04 15:34 39.04527 27.75590 36055 ft 446 kts 349°
2026-05-04 15:34 39.13751 27.74042 36056 ft 447 kts 349°
2026-05-04 15:35 39.22955 27.72499 36057 ft 447 kts 349°
2026-05-04 15:36 39.32194 27.70950 36056 ft 447 kts 349°
2026-05-04 15:36 39.38334 27.69911 36056 ft 447 kts 349°
2026-05-04 15:37 39.44468 27.68869 36056 ft 447 kts 349°
2026-05-04 15:37 39.50629 27.67820 36057 ft 447 kts 349°
2026-05-04 15:38 39.56776 27.66770 36057 ft 447 kts 349°
2026-05-04 15:38 39.62907 27.65722 36057 ft 447 kts 349°
2026-05-04 15:39 39.69062 27.64667 36056 ft 447 kts 349°
2026-05-04 15:40 39.78280 27.63084 36056 ft 447 kts 349°
2026-05-04 15:40 39.84454 27.62022 36057 ft 447 kts 349°
2026-05-04 15:41 39.90585 27.60964 36056 ft 447 kts 349°
2026-05-04 15:41 39.96746 27.59900 36056 ft 447 kts 349°
2026-05-04 15:42 40.02895 27.58836 36056 ft 447 kts 349°
2026-05-04 15:42 40.09003 27.57778 36057 ft 447 kts 349°
2026-05-04 15:43 40.15149 27.56715 36058 ft 447 kts 349°
2026-05-04 15:43 40.21313 27.55649 36060 ft 447 kts 349°
2026-05-04 15:44 40.27444 27.54582 36061 ft 447 kts 349°
2026-05-04 15:44 40.33586 27.53510 36062 ft 447 kts 349°
2026-05-04 15:45 40.39734 27.52434 36063 ft 447 kts 349°
2026-05-04 15:45 40.45846 27.51363 36062 ft 447 kts 349°
2026-05-04 15:46 40.52000 27.50282 36060 ft 447 kts 349°
2026-05-04 15:46 40.58146 27.49200 36059 ft 447 kts 349°
2026-05-04 15:47 40.64312 27.48113 36058 ft 446 kts 349°
2026-05-04 15:47 40.70441 27.47029 36058 ft 447 kts 349°
2026-05-04 15:48 40.76591 27.45940 36058 ft 447 kts 349°
2026-05-04 15:48 40.85776 27.44307 36058 ft 447 kts 349°
2026-05-04 15:49 40.91914 27.43214 36058 ft 446 kts 349°
2026-05-04 15:49 40.98058 27.42110 36058 ft 446 kts 349°
2026-05-04 15:50 41.04229 27.40967 36057 ft 448 kts 349°
2026-05-04 15:50 41.10386 27.39821 36057 ft 449 kts 349°
2026-05-04 15:51 41.16562 27.38677 36058 ft 451 kts 349°
2026-05-04 15:51 41.22752 27.37528 36058 ft 451 kts 349°
2026-05-04 15:52 41.28937 27.36372 36058 ft 451 kts 349°
2026-05-04 15:52 41.35132 27.35211 36058 ft 451 kts 349°
2026-05-04 15:53 41.41343 27.34026 36058 ft 451 kts 348°
2026-05-04 15:53 41.47525 27.32843 36058 ft 450 kts 349°
2026-05-04 15:54 41.53692 27.31679 36059 ft 450 kts 349°
2026-05-04 15:54 41.59882 27.30511 36058 ft 450 kts 349°
2026-05-04 15:55 41.66086 27.29334 36059 ft 450 kts 349°
2026-05-04 15:55 41.72281 27.28159 36058 ft 451 kts 349°
2026-05-04 15:56 41.78447 27.26987 36058 ft 450 kts 349°
2026-05-04 15:56 41.84611 27.25812 36058 ft 450 kts 349°
2026-05-04 15:57 41.90820 27.24628 36058 ft 450 kts 349°
2026-05-04 15:57 41.96968 27.23402 36053 ft 449 kts 345°
2026-05-04 15:58 42.02750 27.20577 36055 ft 441 kts 327°
2026-05-04 15:58 42.07556 27.15658 36054 ft 433 kts 310°
2026-05-04 15:59 42.11035 27.09202 36059 ft 425 kts 294°
2026-05-04 15:59 42.13629 27.02080 36061 ft 420 kts 292°
2026-05-04 16:00 42.16120 26.95073 36060 ft 415 kts 294°
2026-05-04 16:00 42.18623 26.88090 36059 ft 412 kts 294°
2026-05-04 16:01 42.21102 26.81174 36058 ft 411 kts 294°
2026-05-04 16:01 42.23581 26.74241 36059 ft 411 kts 294°
2026-05-04 16:02 42.26054 26.67296 36058 ft 411 kts 294°
2026-05-04 16:03 42.29764 26.56843 36059 ft 411 kts 294°
2026-05-04 16:03 42.32223 26.49889 36059 ft 411 kts 294°
2026-05-04 16:04 42.34676 26.42940 36058 ft 411 kts 294°
2026-05-04 16:04 42.38371 26.32424 36059 ft 411 kts 294°
2026-05-04 16:05 42.40798 26.25478 36058 ft 411 kts 294°
2026-05-04 16:06 42.44470 26.14961 36058 ft 411 kts 294°
2026-05-04 16:07 42.49989 26.01465 36058 ft 413 kts 304°
2026-05-04 16:07 42.55760 25.92799 36058 ft 417 kts 316°
2026-05-04 16:08 42.57953 25.90264 36059 ft 417 kts 318°
2026-05-04 16:09 42.69180 25.77762 36058 ft 418 kts 318°
2026-05-04 16:10 42.78099 25.67771 36058 ft 418 kts 318°
2026-05-04 16:11 42.87033 25.57724 36058 ft 417 kts 318°
2026-05-04 16:12 43.00542 25.42451 36053 ft 425 kts 318°
2026-05-04 16:13 43.09669 25.32068 36056 ft 430 kts 317°
2026-05-04 16:14 43.18818 25.21654 36056 ft 430 kts 318°
2026-05-04 16:16 43.30277 25.08535 36056 ft 429 kts 317°